{"data":{"norad_id":65365,"epoch":"2026-05-24T11:24:17.505504Z","epoch_age_seconds":113544,"freshness":"FRESH","line1":"1 65365U 25190Q   26144.47520261  .00003917  00000+0  14427-3 0  9996","line2":"2 65365  53.1586 176.4937 0001081  79.0224 281.0898 15.30209046 40882","mean_motion":15.30209046,"eccentricity":0.0001081,"inclination_deg":53.1586,"raan_deg":176.4937,"arg_perigee_deg":79.0224,"mean_anomaly_deg":281.0898,"bstar":0.00014427,"rev_number":4088,"period_min":94.104789392285,"perigee_km":474.44721538797,"apogee_km":475.9289042659,"semimajor_km":6853.3250598269,"source":"CELESTRAK","updated_at":"2026-05-25T13:38:20.767852Z"}}